This is the latest recevied weather packets stored in our database for station/object N8RJH-13. If no packets are shown the sender has not sent any weather packets the latest 10 day(s).
| Time | Temp. | Humidity | Pressure | Rain* | Wind** | Luminosity | Snow |
|---|---|---|---|---|---|---|---|
| 1787707266 | 21.11° C | 74% | 1021 hPa | - | - | - | - |
| 1787706637 | 21.11° C | 73% | 1020.8 hPa | - | - | - | - |
| 1787706009 | 21.67° C | 72% | 1021 hPa | - | - | - | - |
| 1787705397 | 22.22° C | 72% | 1020.8 hPa | - | - | - | - |
| 1787704776 | 22.22° C | 70% | 1020.7 hPa | - | - | - | - |
| 1787704147 | 22.78° C | 69% | 1020.4 hPa | - | - | - | - |
| 1787703538 | 23.33° C | 68% | 1020.3 hPa | - | - | - | - |
| 1787702916 | 23.89° C | 65% | 1020.1 hPa | - | - | - | - |
| 1787702307 | 24.44° C | 64% | 1020.2 hPa | - | - | - | - |
| 1787701677 | 25° C | 62% | 1020 hPa | - | - | - | - |
| 1787701056 | 25.56° C | 61% | 1020.2 hPa | - | - | - | - |
| 1787700426 | 25.56° C | 61% | 1020.1 hPa | - | - | - | - |
| 1787699817 | 26.11° C | 56% | 1020 hPa | - | - | - | - |
| 1787699197 | 26.67° C | 56% | 1019.9 hPa | - | - | - | - |
| 1787698556 | 26.67° C | 56% | 1019.7 hPa | - | - | - | - |
| 1787697926 | 27.22° C | 56% | 1019.8 hPa | - | - | - | - |
| 1787697306 | 27.22° C | 53% | 1019.6 hPa | - | - | - | - |
| 1787696696 | 27.78° C | 53% | 1019.7 hPa | - | - | - | - |
| 1787696077 | 27.78° C | 52% | 1019.7 hPa | - | - | - | - |
| 1787695446 | 27.78° C | 52% | 1019.5 hPa | - | - | - | - |
| 1787694836 | 27.78° C | 53% | 1019.7 hPa | - | - | - | - |
| 1787694217 | 27.78° C | 52% | 1019.4 hPa | - | - | - | - |
| 1787693587 | 28.33° C | 51% | 1019.5 hPa | - | - | - | - |
| 1787692975 | 28.33° C | 52% | 1019.5 hPa | - | - | - | - |
| 1787692356 | 28.33° C | 53% | 1019.3 hPa | - | - | - | - |
* Rain since midnight (hover to see other rain measurements)
** Current wind speed in m/s (hover to see current wind gust speed)